Location: Aytr�
(46.1357°N, 1.1145°W)
Time: 21:05:27
(UTC+00:00)

Meteor 1-14 Rocket - Pass Details

Date: 03 March 2021
Orbit: 834 x 918 km, 81.3° (Epoch: 20 April)

Event Time Altitude Azimuth Distance (km) Brightness Sun altitude
Rises 19:20:35 0° 193° (SSW) 3,397 7.4 -15.8°
Reaches altitude 10° 19:23:00 10° 194° (SSW) 2,458 6.7 -16.2°
Maximum altitude 19:28:34 78° 281° (WNW) 860 4.3 -17.2°
Drops below altitude 10° 19:34:08 10° 9° (N) 2,457 6.6 -18.1°
Sets 19:36:33 0° 10° (N) 3,396 7.4 -18.5°
